THOR ABLESTAR DEB, 141

Orbit data source: Space-Track

THOR ABLESTAR DEB, 141 is space debris in LEO originally from a launch on Thu, 29 Jun 1961 UTC launched from the Air Force Eastern Test Range (AFETR). Debris objects in space refer to the collection of defunct objects orbiting the Earth. Examples of debris include non-operational satellites, rocket bodies, and fragments generated from explosions, collisions, or faulty payload assembly.

Loading next visibility...
Identifier
141, 1961-015AB
Orbit
LEO
Country
Flag of USUS
Related business
Manufacturer
Unknown
Mission
Spacecraft
Bus & Motor
Unknown
Mass
Unknown
Launch date (UTC)
1961-06-29 (65 years ago)
Launch vehicle
Unknown
Launch site
Air Force Eastern Test Range (AFETR)
Object type
Payload
Rocket body
Debris
Shape & HBR
Unknown shape, 0.5 m
Radar Cross Section
Medium (>0.1 m² and <1 m²)

Expand to show TLE details & history
Last TLE update: 6 hours ago

TLE from 6 hours ago
0 THOR ABLESTAR DEB
1   141U 61015AB  26104.40518494  .00000164  00000-0  19813-3 0  9993
2   141  66.5891 200.7054 0046634  87.6353 273.0061 13.88968297262961
Epoch: 2026-04-14T09:43Z
TLE epoch observation values (Epoch: 2026-04-14T09:43:27.978Z)
Latitude
-0.00006°
Longitude
-147.74311°
Altitude
932.677 km
Speed
7.387 km/s
True Right ascension
13h 22m 49s
True Declination
0° 00' 00"
Sunlit
Object was in full shadow at epoch
Visualization orbit readout
Latitude
Unknown
Longitude
Unknown
Altitude
Unknown
Speed
Unknown
Apparent Right ascension
Unknown
Apparent Declination
Unknown
Sunlit
N/A
Visualization observer readout
Local Sidereal Time
22:16:38
Azimuth
Unknown
Elevation
Unknown
Doppler factor
Unknown
Orbital elements
Apogee altitude
964.752 km
Perigee altitude
896.584 km
Semi-major axis
7,308.805 km
Eccentricity
0.00466
Inclination
66.5891°
RAAN
200.7054°
Arg. of periapsis
87.6353°
True anomaly
272.47229°
Mean anomaly
273.0061°
Eccentric anomaly
272.73921°
Mean motion
3.47355 °/min
Orbital period
103.64 mins
BSTAR
0.00019813
Loading maneuver chart data...
Computing Atmospheric mass density...

Documentation

Showing up to 5 results
|